Powrót do katalogu

STARLINK-5347

AktywnyŁącznośćVLEO
NORAD 57137·PAYLOAD·🇺🇸 United States

Wystrzelony Jun 23, 2023 z Cape Canaveral Space Force Station

Loading…

Następne Przeloty (najbliższe 24 godziny)

TLE

ŚwieżeSource: CelesTrak SupGP

Epoka: Sep 15, 2026, 02:27 UTC

1 57137C 23090AN  26258.10256944 -.00006725  00000+0 -24361-3 0  2589
2 57137  43.0017 273.3011 0001232 328.9539 102.1878 15.27579125    16

Śledź STARLINK-5347 w czasie rzeczywistym z AllMySat

Download on the App Store